Theta_e
308 308 308 309 308 306 307 306 307 306 308 308 308 306 304 302 299 296 295 293 292 291 289 288 288 287 287 287 287 287 287 288 288 288 287 286 285 285 285 287 288 290 291 292
305 305 305 305 303 303 303 304 303 303 304 306 304 302 300 299 296 295 293 292 290 289 288 287 287 287 287 287 286 287 287 287 287 287 287 287 286 285 285 285 286 288 288 289
305 303 302 301 302 304 302 306 306 301 306 302 299 297 296 294 293 292 291 289 288 287 287 287 287 286 286 286 286 286 286 286 286 287 287 287 286 285 285 285 285 285 286 286
305 302 303 305 304 303 304 304 305 305 302 298 295 293 292 291 290 289 288 287 286 286 286 286 286 286 286 286 285 285 285 285 285 285 286 286 286 286 285 284 284 285 285 285
302 303 303 303 302 299 299 301 300 301 300 296 293 291 291 290 289 288 286 285 285 285 285 285 285 285 285 285 284 283 283 283 284 283 283 284 284 285 284 284 283 283 283 284
302 302 296 304 302 302 300 298 297 297 299 298 296 296 290 290 289 288 286 285 285 285 285 285 284 285 285 285 285 284 281 281 282 282 281 282 283 282 283 283 282 282 282 282
301 300 303 301 299 300 299 295 296 296 296 299 295 291 288 287 288 289 288 287 286 285 285 285 285 284 285 285 285 285 284 282 280 280 279 279 280 281 280 281 281 281 281 281
298 299 303 297 299 301 297 295 294 294 292 291 289 288 288 288 288 288 287 287 286 285 285 284 284 285 285 284 285 285 285 284 282 280 279 278 278 278 279 279 279 279 279 279
300 298 297 296 296 296 295 294 294 292 291 290 288 288 287 287 287 287 286 286 285 285 284 283 283 283 283 285 284 284 284 283 283 281 280 279 277 277 277 278 278 278 278 279
300 298 296 295 294 293 292 292 292 291 290 289 288 287 287 287 287 286 286 285 284 283 283 282 282 282 282 283 283 283 283 283 283 282 281 279 278 278 277 277 277 277 278 279
299 297 295 295 293 292 291 290 290 289 289 288 288 287 287 287 286 286 285 284 283 282 281 281 281 281 282 282 283 282 282 282 282 282 282 280 279 278 278 278 278 278 277 278
300 296 297 294 292 291 290 290 289 289 288 287 287 286 286 285 285 285 284 283 281 281 280 280 280 280 280 281 282 282 282 282 282 282 281 281 281 280 280 278 277 278 279 278
297 295 293 293 292 290 290 289 289 288 287 286 286 285 285 285 285 284 283 282 281 280 279 278 279 280 281 280 281 281 282 281 281 281 281 281 281 280 279 278 277 276 277 278
293 292 292 291 292 290 289 289 288 288 287 286 286 285 285 284 283 282 280 279 278 277 277 276 278 278 279 281 280 280 281 281 280 280 280 280 280 279 279 278 276 275 276 277
294 294 292 290 290 289 289 288 288 288 288 287 286 285 283 282 279 278 278 278 277 276 275 275 276 278 279 281 280 279 279 280 279 278 279 279 279 278 278 278 277 276 275 275
293 291 290 290 290 289 289 288 288 287 286 284 284 283 280 278 277 277 277 276 275 274 275 275 275 277 278 279 279 279 278 278 278 278 278 278 278 277 277 276 276 276 276 276
292 291 291 290 289 289 289 288 286 285 284 283 283 281 279 278 277 276 275 274 274 274 275 275 275 276 277 278 278 278 277 277 277 276 277 276 276 276 276 276 275 275 276 275
291 290 290 290 289 289 288 287 286 285 284 281 281 280 279 277 276 275 275 274 274 274 275 275 275 275 276 277 277 277 276 276 276 276 276 276 275 276 275 275 275 274 274 274
293 292 290 290 290 289 287 285 282 281 280 279 279 277 277 275 275 276 276 276 275 274 275 275 275 275 275 276 276 276 276 275 275 275 275 275 275 275 275 274 274 274 274 274
291 290 290 288 288 285 281 280 280 279 279 278 277 276 276 276 277 277 276 275 274 274 274 275 274 274 275 275 275 275 274 274 274 274 274 274 273 273 273 273 273 273 273 273
287 286 285 284 282 282 281 280 279 278 277 277 276 275 276 276 276 276 276 274 275 275 274 275 274 273 273 274 274 274 273 273 273 273 272 271 271 271 271 270 270 271 271 271
285 284 283 282 281 280 280 279 279 278 278 277 276 276 276 277 277 277 278 275 275 276 275 274 273 272 273 274 273 272 272 271 271 270 270 269 268 268 268 268 268 268 267 268
283 282 281 280 280 279 279 278 278 278 277 277 276 276 277 277 277 277 276 275 275 275 274 272 272 272 272 271 271 270 270 269 268 268 267 266 266 266 266 265 265 265 265 265
282 281 281 280 279 278 277 277 277 277 276 276 278 279 280 278 278 277 276 275 274 274 272 271 270 271 270 269 268 268 267 267 266 265 265 264 264 264 263 262 262 262 262 262
282 281 280 280 280 279 278 277 277 276 278 278 278 279 279 279 277 276 275 274 273 272 271 270 269 268 267 267 266 266 265 264 263 263 262 262 261 261 261 260 260 259 260 260
282 281 281 281 281 279 278 278 278 278 278 278 279 278 277 276 275 275 274 273 272 271 269 268 267 267 266 265 264 264 263 262 262 261 260 260 259 259 258 258 258 258 258 258
282 282 281 282 279 279 279 279 279 280 279 279 278 277 276 275 274 273 272 271 270 269 268 267 266 265 264 263 262 262 261 261 260 259 259 258 258 257 257 256 256 257 257 257
Wind_Speed
6 9 8 8 15 8 7 7 6 10 7 8 6 12 9 12 13 13 12 12 11 12 13 18 19 21 23 22 25 27 28 28 30 29 28 27 26 26 27 27 28 32 32 27
2 7 10 11 10 11 7 5 7 8 2 13 12 14 14 12 12 11 10 11 12 12 16 18 20 20 19 23 27 29 28 30 32 29 26 25 28 33 34 35 30 36 42 29
3 2 5 4 4 3 6 6 3 4 3 10 12 14 11 11 10 11 11 11 9 10 13 15 17 20 23 25 29 28 30 32 30 28 26 29 31 32 33 32 32 36 40 35
2 2 3 2 9 8 4 10 7 8 10 11 12 11 10 9 9 9 9 9 6 11 14 16 19 21 23 27 27 28 30 30 33 31 30 33 33 33 34 34 35 39 43 42
3 3 4 2 5 4 3 2 8 4 10 13 14 11 10 9 10 9 7 9 11 15 15 17 20 20 22 26 25 28 29 30 30 33 31 32 34 33 32 34 37 40 41 48
1 3 4 2 4 7 6 3 5 6 5 10 10 2 2 7 7 8 12 12 13 14 14 15 17 17 21 19 20 26 29 28 27 29 32 33 30 33 31 33 36 38 43 47
2 3 1 3 3 2 2 3 4 6 6 4 3 2 10 7 5 9 10 11 13 13 14 14 15 20 21 21 22 21 25 33 35 31 31 32 30 31 33 31 34 36 39 42
2 2 6 5 3 3 1 3 4 7 7 14 14 11 9 7 7 10 10 10 9 11 14 19 22 22 18 23 22 23 21 25 35 36 32 35 33 33 31 33 33 34 35 37
2 2 4 4 4 4 5 4 3 6 7 11 13 11 9 8 7 10 10 11 12 13 16 19 21 20 22 19 21 23 25 25 26 34 34 31 36 34 33 32 30 30 31 31
4 5 6 7 6 7 7 7 6 8 10 9 12 10 9 8 7 8 9 12 14 15 16 17 17 19 21 22 20 22 23 25 24 23 30 32 30 31 32 32 31 29 28 27
4 6 7 7 7 8 8 8 9 9 9 9 10 9 8 7 9 9 12 14 14 15 15 16 17 22 23 23 22 22 24 25 24 25 22 25 27 28 30 33 32 28 28 27
1 9 5 8 9 10 9 8 8 10 10 11 11 9 11 10 9 12 15 16 17 16 16 14 17 20 25 23 24 24 21 22 25 23 25 23 19 21 25 27 27 27 29 30
3 7 10 11 10 10 9 9 10 10 12 10 13 14 13 11 9 16 19 19 17 16 14 12 16 21 20 23 19 22 22 23 24 25 25 25 24 23 21 22 30 27 26 27
11 13 9 8 6 10 12 13 15 14 14 14 15 13 12 9 17 17 18 19 18 16 14 13 15 19 19 17 23 22 23 21 21 22 23 23 23 24 24 19 22 29 29 26
4 5 9 12 13 10 14 14 10 8 10 12 14 12 16 16 16 17 17 15 14 16 16 16 17 19 21 17 13 19 19 19 19 20 21 21 21 23 23 22 21 23 26 27
9 11 10 10 11 11 11 9 9 6 8 10 14 19 21 20 19 17 14 12 15 15 14 19 19 16 18 17 17 17 17 17 19 20 22 24 24 22 22 22 20 19 21 21
11 9 10 8 7 7 8 9 11 10 12 13 15 19 21 19 16 14 16 15 15 17 16 15 16 14 16 16 17 17 18 19 19 21 23 21 21 22 21 20 21 21 21 20
7 8 8 8 7 7 9 13 14 14 12 14 16 23 21 16 14 15 15 16 16 15 14 13 12 14 16 17 16 17 18 20 19 19 18 18 19 19 18 18 18 19 19 17
10 8 13 13 15 13 12 14 16 19 21 21 21 19 18 17 15 13 10 10 11 12 10 8 11 10 14 16 17 15 16 16 16 16 16 16 17 16 17 17 17 16 16 15
10 14 18 16 19 22 17 19 22 21 19 19 20 20 18 15 12 12 12 15 10 12 10 11 11 14 13 15 14 13 14 15 16 16 16 17 18 19 19 19 19 18 17 16
11 17 17 18 17 18 21 22 21 19 17 19 20 19 18 15 12 14 14 13 11 8 6 8 14 13 10 11 12 12 13 15 16 17 17 19 19 19 20 20 21 21 21 20
13 15 16 17 17 17 18 18 19 21 19 18 18 18 17 15 12 11 13 12 9 6 11 8 11 10 9 11 11 12 14 14 15 17 17 17 19 20 20 21 20 19 20 22
13 15 16 16 16 17 18 19 21 21 20 20 20 18 15 12 12 17 14 10 9 8 8 8 9 8 9 10 11 12 13 14 15 15 16 17 18 17 18 18 18 19 20 19
15 15 16 20 22 19 16 17 17 17 19 19 12 6 9 18 16 15 15 11 7 7 8 8 9 6 8 10 11 12 12 13 13 14 16 16 16 16 16 17 18 19 19 20
14 15 18 17 15 13 16 17 17 18 17 14 13 13 12 18 19 17 13 11 11 10 9 8 8 9 10 10 11 12 12 13 14 15 15 14 16 17 17 18 19 20 20 19
15 13 14 14 14 18 18 18 16 18 19 18 16 14 13 14 15 16 14 12 11 11 11 9 8 9 9 8 10 10 11 12 15 14 14 15 16 17 18 19 18 18 18 20
13 15 14 14 20 20 21 20 21 19 23 22 20 18 18 17 17 16 13 11 9 8 6 6 7 8 9 9 9 10 10 12 15 12 14 16 19 19 20 17 18 16 17 16
Wind_Direction
282 274 260 250 275 257 244 227 214 253 238 252 99 100 98 90 86 70 53 41 32 26 20 15 9 5 1 359 359 357 357 358 359 359 2 8 5 10 9 10 10 27 27 14
286 294 286 283 279 284 278 259 280 280 291 76 73 80 71 76 77 70 58 42 32 29 22 13 9 1 359 3 4 6 5 3 2 3 7 13 20 23 24 21 16 33 34 12
252 357 1 304 242 279 264 50 20 69 38 97 77 72 71 76 72 65 58 50 35 32 23 10 5 6 10 10 13 12 12 9 3 4 9 19 25 27 27 27 31 36 40 27
214 70 233 98 53 56 61 54 43 93 99 98 97 85 67 62 77 76 67 59 32 30 21 16 16 18 19 21 16 17 15 9 8 7 15 21 26 27 29 29 33 39 40 37
164 201 276 3 10 45 90 60 24 42 124 127 124 105 76 76 78 83 76 64 55 48 37 29 32 31 35 33 25 26 18 12 10 15 17 23 25 26 28 31 35 39 39 41
12 180 233 167 3 34 67 282 17 6 10 163 168 105 134 103 97 105 104 87 69 58 48 37 35 43 43 30 28 34 28 22 19 21 25 24 23 27 31 36 39 39 41 40
186 228 202 57 349 345 101 230 343 323 287 254 117 85 123 114 102 103 126 106 85 63 47 36 31 45 44 34 30 33 33 38 39 33 29 32 31 33 32 35 39 40 42 39
168 189 249 359 281 204 79 72 51 59 95 108 112 111 114 109 99 86 87 97 92 78 56 43 37 40 37 43 40 45 38 37 42 41 36 35 36 34 34 37 38 36 39 38
112 176 98 45 81 52 72 108 87 107 103 116 116 115 112 108 98 94 91 100 85 69 56 42 36 34 28 40 43 48 45 42 37 42 43 37 39 36 35 36 38 37 37 36
146 143 132 121 93 81 78 98 95 106 113 114 116 118 116 106 99 95 96 89 84 73 61 48 36 34 37 42 43 44 42 39 39 37 43 46 44 45 44 39 38 36 35 35
82 123 117 121 124 121 110 102 106 102 112 117 120 110 109 105 100 106 96 91 88 80 69 53 45 45 47 46 47 43 43 40 38 39 38 47 53 52 55 50 46 44 41 36
156 152 90 132 135 133 124 120 117 116 109 100 109 107 102 96 107 100 99 99 91 85 74 58 53 49 47 49 51 51 46 41 41 44 46 48 51 62 56 50 47 47 45 44
118 79 107 122 123 129 127 124 120 116 115 117 113 113 115 136 121 102 96 91 90 86 76 65 65 58 50 51 54 54 52 48 46 46 45 45 47 50 55 47 47 46 43 43
112 105 105 144 133 127 125 128 124 123 126 125 127 137 161 126 96 86 83 84 82 77 68 64 62 54 47 58 55 51 51 52 48 48 48 48 48 45 43 55 44 41 45 44
180 92 118 123 125 128 129 133 130 127 130 138 161 150 113 96 80 73 92 93 88 77 64 58 57 49 48 60 66 50 50 52 56 50 49 48 50 49 46 51 49 46 42 41
109 111 118 128 138 145 147 142 131 130 118 103 102 102 101 101 94 92 92 89 83 72 65 58 53 51 53 61 57 57 52 53 55 51 44 45 46 45 44 42 43 40 39 36
131 141 139 144 146 143 139 127 129 123 115 111 116 119 111 103 96 91 93 91 88 81 71 61 52 57 59 64 58 53 49 51 48 43 42 38 36 36 35 38 36 34 29 27
157 149 152 149 143 127 128 134 136 137 120 122 125 124 120 117 119 119 111 101 93 93 85 72 59 60 58 59 54 50 45 42 43 39 33 32 29 29 28 27 26 23 21 22
159 144 141 133 131 130 120 109 112 124 133 132 127 122 125 127 131 131 138 136 90 94 69 73 59 60 58 51 49 42 40 34 33 29 27 26 22 22 20 19 15 11 8 8
108 118 119 113 121 126 115 125 132 130 138 139 134 130 127 132 128 127 130 115 112 98 81 83 65 49 52 50 40 36 34 31 26 24 24 25 26 24 17 13 10 9 4 1
107 108 107 110 110 122 132 143 139 135 141 143 141 140 140 139 136 140 122 121 121 116 102 66 48 45 43 42 32 34 32 29 28 30 33 24 19 21 20 16 12 11 9 6
116 116 117 117 115 116 137 143 143 141 140 141 143 145 147 150 140 119 145 122 120 97 129 67 48 43 50 41 42 34 30 29 31 28 27 25 24 19 20 19 22 18 14 18
117 121 122 125 126 124 134 139 144 147 147 150 152 151 147 150 152 127 127 124 108 119 102 68 49 50 54 50 39 34 30 28 27 28 25 20 18 19 22 21 19 12 14 10
126 126 125 130 132 126 127 141 143 150 147 141 139 130 146 130 120 145 127 131 119 128 99 66 41 40 36 36 31 35 32 27 29 22 17 15 13 11 12 11 8 4 1 1
136 137 137 140 145 145 146 146 141 146 144 145 128 111 102 135 129 132 124 108 112 103 86 57 49 35 28 34 34 32 27 26 20 9 8 10 10 7 1 358 356 354 354 358
151 153 162 165 155 151 152 153 153 161 154 148 132 122 112 121 119 124 124 115 112 101 80 63 52 41 32 35 25 23 19 12 10 14 12 5 358 353 354 352 353 357 358 356
165 170 178 163 152 159 164 167 166 163 156 148 133 131 128 125 125 123 122 119 109 96 84 59 42 34 29 24 23 18 8 10 9 16 2 357 352 350 346 345 346 348 353 350